• In Belarus
  • List of Countries
  • For 7 days
  • Water Temperature
  • Satellite Maps
  • Weather Map
  • Weather Widgets
  • user-avatar
    Login

    Hourly Weather Lyss

    Today, 11 December, Monday

    Time Temperature Precipitation Wind Pressure Humidity
    00:00 +4°C° 0 mm 3 mps 698 mmHg 92%
    01:00 +4°C° 0.2 mm 3 mps 697 mmHg 92%
    02:00 +5°C° 0.2 mm 2 mps 696 mmHg 92%
    03:00 +4°C° 0.2 mm 2 mps 695 mmHg 91%
    04:00 +4°C° 0.6 mm 2 mps 695 mmHg 91%
    05:00 +4°C° 0.6 mm 2 mps 694 mmHg 91%
    06:00 +5°C° 0 mm 2 mps 693 mmHg 90%
    07:00 +5°C° 0.6 mm 2 mps 693 mmHg 90%
    08:00 +5°C° 0.6 mm 2 mps 693 mmHg 90%
    09:00 +5°C° 0.6 mm 2 mps 693 mmHg 91%
    10:00 +5°C° 0.9 mm 2 mps 693 mmHg 91%
    11:00 +6°C° 0.9 mm 2 mps 693 mmHg 92%
    12:00 +6°C° 0.9 mm 2 mps 694 mmHg 92%
    13:00 +6°C° 1.7 mm 2 mps 694 mmHg 92%
    14:00 +5°C° 1.7 mm 2 mps 694 mmHg 93%
    15:00 +5°C° 1.7 mm 2 mps 695 mmHg 93%
    16:00 +4°C° 1.2 mm 3 mps 696 mmHg 92%
    17:00 +4°C° 1.2 mm 3 mps 696 mmHg 91%
    18:00 +3°C° 1.2 mm 4 mps 697 mmHg 90%
    19:00 +3°C° 0.5 mm 4 mps 697 mmHg 89%
    20:00 +3°C° 0.5 mm 4 mps 698 mmHg 88%
    21:00 +2°C° 0.5 mm 5 mps 699 mmHg 87%
    22:00 +2°C° 0.2 mm 5 mps 700 mmHg 87%
    23:00 +2°C° 0.2 mm 5 mps 700 mmHg 87%

    Tomorrow, 12 December, Tuesday

    Time Temperature Precipitation Wind Pressure Humidity
    00:00 +2°C° 0.2 mm 5 mps 701 mmHg 87%
    01:00 +1°C° 0.2 mm 5 mps 702 mmHg 88%
    02:00 0°C° 0.2 mm 4 mps 704 mmHg 89%
    03:00 0°C° 0.2 mm 4 mps 705 mmHg 89%
    04:00 0°C° 0.2 mm 4 mps 706 mmHg 90%
    05:00 0°C° 0.2 mm 3 mps 707 mmHg 91%
    06:00 0°C° 0.2 mm 3 mps 709 mmHg 91%
    07:00 0°C° 0.2 mm 3 mps 710 mmHg 91%
    08:00 +2°C° 0.2 mm 2 mps 711 mmHg 91%
    09:00 +2°C° 0.2 mm 2 mps 712 mmHg 91%
    10:00 +2°C° 0.2 mm 2 mps 712 mmHg 90%
    11:00 +1°C° 0.2 mm 3 mps 713 mmHg 89%
    12:00 +2°C° 0.2 mm 3 mps 713 mmHg 88%
    13:00 +1°C° 0.1 mm 3 mps 714 mmHg 88%
    14:00 +2°C° 0.1 mm 2 mps 715 mmHg 88%
    15:00 +1°C° 0.1 mm 2 mps 715 mmHg 89%
    16:00 -1°C° 0 mm 2 mps 716 mmHg 90%
    17:00 -2°C° 0 mm 2 mps 717 mmHg 92%
    18:00 -3°C° 0 mm 2 mps 718 mmHg 93%
    19:00 -3°C° 0 mm 2 mps 718 mmHg 93%
    20:00 -4°C° 0 mm 2 mps 719 mmHg 92%
    21:00 -4°C° 0 mm 2 mps 720 mmHg 92%
    22:00 -4°C° 0 mm 2 mps 720 mmHg 90%
    23:00 -5°C° 0 mm 2 mps 720 mmHg 89%

    Day after tomorrow, 13 December, Wednesday

    Time Temperature Precipitation Wind Pressure Humidity
    00:00 -5°C° 0 mm 2 mps 720 mmHg 88%
    01:00 -5°C° 0 mm 2 mps 720 mmHg 86%
    02:00 -5°C° 0 mm 2 mps 720 mmHg 84%
    03:00 -6°C° 0 mm 2 mps 720 mmHg 82%
    04:00 -6°C° 0 mm 2 mps 720 mmHg 80%
    05:00 -5°C° 0 mm 2 mps 720 mmHg 79%
    06:00 -5°C° 0 mm 2 mps 720 mmHg 77%
    07:00 -4°C° 0 mm 2 mps 719 mmHg 75%
    08:00 -3°C° 0 mm 2 mps 719 mmHg 72%
    09:00 -2°C° 0 mm 3 mps 718 mmHg 69%
    10:00 0°C° 0 mm 3 mps 717 mmHg 68%
    11:00 +1°C° 0 mm 3 mps 717 mmHg 67%
    12:00 +3°C° 0 mm 3 mps 716 mmHg 65%
    13:00 +3°C° 0.4 mm 3 mps 715 mmHg 70%
    14:00 +3°C° 0.4 mm 4 mps 715 mmHg 75%
    15:00 +1°C° 0.4 mm 4 mps 715 mmHg 80%
    16:00 +1°C° 0.2 mm 4 mps 715 mmHg 82%
    17:00 +1°C° 0.2 mm 4 mps 714 mmHg 84%
    18:00 +2°C° 0.2 mm 3 mps 714 mmHg 87%
    19:00 +3°C° 0.4 mm 4 mps 714 mmHg 87%
    20:00 +3°C° 0.4 mm 4 mps 713 mmHg 88%
    21:00 +4°C° 0.4 mm 4 mps 713 mmHg 88%
    22:00 +4°C° 0.5 mm 4 mps 712 mmHg 88%
    23:00 +3°C° 0.5 mm 5 mps 712 mmHg 89%

    14 December, Thursday

    Time Temperature Precipitation Wind Pressure Humidity
    00:00 +5°C° 0.5 mm 5 mps 711 mmHg 89%
    01:00 +5°C° 0.4 mm 5 mps 711 mmHg 89%
    02:00 +5°C° 0.4 mm 5 mps 711 mmHg 90%
    03:00 +5°C° 0.4 mm 5 mps 710 mmHg 91%
    04:00 +5°C° 0.4 mm 5 mps 710 mmHg 91%
    05:00 +5°C° 0.4 mm 4 mps 710 mmHg 92%
    06:00 +5°C° 0.4 mm 4 mps 710 mmHg 92%
    07:00 +5°C° 0.2 mm 4 mps 710 mmHg 92%
    08:00 +5°C° 0.2 mm 5 mps 710 mmHg 91%
    09:00 +5°C° 0.2 mm 5 mps 710 mmHg 90%
    10:00 +5°C° 0.1 mm 5 mps 710 mmHg 88%
    11:00 +5°C° 0.1 mm 6 mps 709 mmHg 87%
    12:00 +5°C° 0.1 mm 6 mps 708 mmHg 85%
    13:00 +5°C° 0.2 mm 6 mps 708 mmHg 85%
    14:00 +5°C° 0.2 mm 6 mps 707 mmHg 85%
    15:00 +5°C° 0.2 mm 6 mps 706 mmHg 84%
    16:00 +4°C° 1.2 mm 6 mps 707 mmHg 86%
    17:00 +4°C° 1.2 mm 6 mps 707 mmHg 87%
    18:00 +4°C° 1.2 mm 6 mps 707 mmHg 88%
    19:00 +4°C° 1.5 mm 6 mps 707 mmHg 89%
    20:00 +3°C° 1.5 mm 6 mps 707 mmHg 89%
    21:00 +3°C° 1.5 mm 5 mps 707 mmHg 90%
    22:00 +3°C° 1.2 mm 5 mps 707 mmHg 90%
    23:00 +2°C° 1.2 mm 5 mps 707 mmHg 91%

    15 December, Friday

    Time Temperature Precipitation Wind Pressure Humidity
    00:00 +3°C° 1.2 mm 4 mps 707 mmHg 91%
    01:00 +3°C° 1.1 mm 4 mps 707 mmHg 91%
    02:00 +2°C° 1.1 mm 3 mps 707 mmHg 91%
    03:00 +2°C° 1.1 mm 3 mps 706 mmHg 90%
    04:00 +1°C° 0.4 mm 3 mps 707 mmHg 90%
    05:00 +1°C° 0.4 mm 3 mps 707 mmHg 91%
    06:00 0°C° 0.4 mm 3 mps 707 mmHg 91%
    07:00 0°C° 0.1 mm 3 mps 707 mmHg 89%
    08:00 +1°C° 0.1 mm 3 mps 708 mmHg 88%
    09:00 +1°C° 0.1 mm 3 mps 708 mmHg 87%
    10:00 0°C° 0 mm 4 mps 708 mmHg 84%
    11:00 +1°C° 0 mm 4 mps 708 mmHg 81%
    12:00 +1°C° 0 mm 5 mps 707 mmHg 78%
    13:00 +1°C° 0.3 mm 4 mps 707 mmHg 81%
    14:00 0°C° 0.3 mm 4 mps 707 mmHg 84%
    15:00 0°C° 0.3 mm 4 mps 707 mmHg 87%
    16:00 0°C° 0.5 mm 4 mps 708 mmHg 89%
    17:00 0°C° 0.5 mm 3 mps 709 mmHg 90%
    18:00 0°C° 0.5 mm 3 mps 710 mmHg 92%
    19:00 -1°C° 0.2 mm 3 mps 711 mmHg 92%
    20:00 -1°C° 0.2 mm 3 mps 711 mmHg 91%
    21:00 -2°C° 0.2 mm 3 mps 712 mmHg 91%
    22:00 -1°C° 0.2 mm 3 mps 712 mmHg 91%
    23:00 -1°C° 0.2 mm 3 mps 713 mmHg 91%

    16 December, Saturday

    Time Temperature Precipitation Wind Pressure Humidity
    00:00 -2°C° 0.2 mm 4 mps 713 mmHg 91%
    01:00 -1°C° 0.3 mm 3 mps 714 mmHg 91%
    02:00 -1°C° 0.3 mm 3 mps 714 mmHg 91%
    03:00 -1°C° 0.3 mm 3 mps 715 mmHg 91%
    04:00 -1°C° 0.2 mm 3 mps 715 mmHg 91%
    05:00 -2°C° 0.2 mm 3 mps 716 mmHg 91%
    06:00 -2°C° 0.2 mm 3 mps 716 mmHg 92%
    07:00 -1°C° 0 mm 3 mps 717 mmHg 90%
    08:00 -1°C° 0 mm 3 mps 717 mmHg 89%
    09:00 -1°C° 0 mm 3 mps 717 mmHg 88%
    10:00 0°C° 0.1 mm 3 mps 717 mmHg 86%
    11:00 0°C° 0.1 mm 3 mps 717 mmHg 85%
    12:00 +1°C° 0.1 mm 3 mps 717 mmHg 83%
    13:00 0°C° 0.1 mm 3 mps 717 mmHg 85%
    14:00 0°C° 0.1 mm 3 mps 717 mmHg 87%
    15:00 +1°C° 0.1 mm 2 mps 717 mmHg 88%
    16:00 -1°C° 0 mm 2 mps 718 mmHg 89%
    17:00 -2°C° 0 mm 2 mps 718 mmHg 90%
    18:00 -3°C° 0 mm 2 mps 719 mmHg 90%
    19:00 -4°C° 0 mm 2 mps 719 mmHg 90%
    20:00 -4°C° 0 mm 2 mps 719 mmHg 90%
    21:00 -4°C° 0 mm 2 mps 719 mmHg 90%
    22:00 -5°C° 0 mm 2 mps 719 mmHg 89%
    23:00 -5°C° 0 mm 2 mps 719 mmHg 89%
    Show more